{"data":{"norad_id":57355,"epoch":"2026-09-20T22:09:47.070144Z","epoch_age_seconds":87596,"freshness":"FRESH","line1":"1 57355U 23099AD  26263.92346146 -.00000030  00000+0  84303-5 0  9998","line2":"2 57355  43.0040 219.4600 0000523 291.6789  68.4007 15.27575434176059","mean_motion":15.27575434,"eccentricity":5.23e-5,"inclination_deg":43.004,"raan_deg":219.46,"arg_perigee_deg":291.6789,"mean_anomaly_deg":68.4007,"bstar":8.4303e-6,"rev_number":17605,"period_min":94.267030481717,"perigee_km":482.70392757244,"apogee_km":483.4216090682,"semimajor_km":6861.1997683203,"source":"CELESTRAK","updated_at":"2026-09-21T09:00:33.601527Z"}}